Zurück zum Katalog

COSMOS 1823 DEB

AktivLEO
NORAD 18969·DEBRIS·🇷🇺 Russia

Gestartet Feb 20, 1987 von Plesetsk Cosmodrome

Loading…

Nächste Überflüge (nächste 24 Stunden)

TLE

AktuellSource: Space-Track

Epoche: Sep 14, 2026, 12:46 UTC

1 18969U 87020AW  26257.53195983  .00000086  00000-0  73469-3 0  9991
2 18969  73.6179 280.5896 0035547  42.3277 111.6847 12.43749978755431

Verfolge COSMOS 1823 DEB in Echtzeit mit AllMySat

Download on the App Store